Погода в Гурово

Россия / Омская область     56°18′06″N   75°08′40″E
темп.,
°C
ветер,
м/с
пор.,
м/с
влажн.,
%
обл.,
%
осадки,
мм/ч
давл.,
гПа
погр.,
м
16 октября, сб
сб1600:00+5ююз34800 0.0 103450
03:00+4ююз33810 0.0 103340
06:00+3ююз33840 0.0 103230
09:00+4ю25850 0.0 1032124
12:00+8ю35660 0.0 1030438
15:00+10ю35610 0.0 1028699
18:00+7ю33770 0.0 102730
21:00+5ю34850 0.0 102761
17 октября, вс
вс1700:00+4ю34850 0.0 102661
03:00+3ююз34840 0.0 102552
06:00+2ю348592 0.0 102557
09:00+3ю3679100 0.0 1024161
12:00+8ююз466081 0.0 1024412
15:00+10юз455515 0.0 1023784
18:00+7зюз2371100 0.0 102372
21:00+6юз2376100 0.0 102370
18 октября, пн
пн1800:00+5юз337990 0.0 102352
03:00+4юз35825 0.0 102390
06:00+3юз368643 0.0 1023111
09:00+4юз37845 0.0 1023174
12:00+9юз46645 0.0 1022471
15:00+10юз46515 0.0 1022884
18:00+7юз34625 0.0 102252
21:00+6ююз367363 0.0 102293
19 октября, вт
вт1900:00+5ююз378380 0.0 1022119
03:00+6ююз3882100 0.0 1022166
06:00+6ююз398191 0.0 1022179
09:00+7ююз41173100 0.0 1022231
12:00+11юз5105478 0.0 1021438
15:00+13ююз595069 0.0 1021568
18:00+9ю396771 0.0 1021144
21:00+8ю4107391 0.0 1020189
20 октября, ср
ср2000:00+7ю41076100 0.0 1020195
03:00+6ю397477 0.0 1019183
06:00+5ю3869100 0.0 1018166
09:00+5ююв41065100 0.0 1018252
12:00+8ю5952100 0.0 1016426
15:00+10ююв594998 0.0 1014587
18:00+6ююв4963100 0.0 1013191
21:00+5ююв3106795 0.0 1012197